Погода в Охотном

Россия / Калининградская область     54°55′37″N   21°37′13″E
темп.,
°C
ветер,
м/с
пор.,
м/с
влажн.,
%
обл.,
%
осадки,
мм/ч
давл.,
гПа
погр.,
м
2 июля, сб
сб223:00+21вюв51390100 0.4 1015352
02:00+19всв3597100 3.3 1017110
05:00+19ююв41097100 1.4 1017285
08:00+21зюз3592100 2.1 1018366
11:00+19зсз5897100 2.6 1020441
14:00+19зсз6885100 3.2 1021677
17:00+17зсз5992100 1.5 1022640
20:00+17сз4884100 1.6 1022572
3 июля, вс
вс323:00+14зсз36935 0.0 1022116
02:00+14сз22962 0.0 102222
05:00+14сз11950 0.0 102214
08:00+19с23720 0.0 1022473
11:00+22ссз23540 0.0 10211146
14:00+24сз32520 0.0 10201388
17:00+22зсз325728 0.0 1020730
20:00+18сз24812 0.0 1019124
4 июля, пн
пн423:00+15ссз11880 0.0 101911
02:00+14юв11840 0.0 101810
05:00+14ю11875 0.0 101815
08:00+20ю237265 0.0 1017327
11:00+25зюз235137 0.0 10161557
14:00+26зсз23457 0.0 10152068
17:00+23зсз3467100 0.0 1015174
20:00+19сз22804 0.1 101539
5 июля, вт
вт523:00+16зсз359137 0.0 101697
02:00+16з2495100 0.1 101698
05:00+15з3690100 0.0 1016130
08:00+19зсз5871100 0.0 1017682
11:00+20з5760100 0.0 10181170
14:00+21зсз685643 0.0 10181274
17:00+20зсз56600 0.0 1018884
20:00+16зсз357626 0.0 1018240
6 июля, ср
ср623:00+13юз23902 0.0 101840
02:00+12юз36940 0.0 1018105
05:00+12юз38924 0.0 1017164
08:00+18зюз59635 0.1 1017848
11:00+18з587510 0.9 1017766
14:00+19зсз79597 1.4 10171441
17:00+18зсз710585 0.3 10171399
20:00+16з59640 0.4 1017987